{"data":{"norad_id":69760,"epoch":"2026-09-20T00:37:23.768256Z","epoch_age_seconds":58709,"freshness":"FRESH","line1":"1 69760U 26150X   26263.02596954  .00020772  00000+0  64375-3 0  9996","line2":"2 69760  97.2834 101.9683 0002907  67.6556 292.4995 15.33452730 13663","mean_motion":15.3345273,"eccentricity":0.0002907,"inclination_deg":97.2834,"raan_deg":101.9683,"arg_perigee_deg":67.6556,"mean_anomaly_deg":292.4995,"bstar":0.00064375,"rev_number":1366,"period_min":93.905731283937,"perigee_km":463.53072439234,"apogee_km":467.50962667419,"semimajor_km":6843.6571755333,"source":"CELESTRAK","updated_at":"2026-09-20T09:00:44.290441Z"}}